Simultaneous Nadir Overpasses (SNOs) Predictions

Prediction of SNOs between METOP-B and NOAA-19 Satellite Orbit:

Table of predicted SNOs for the next 14.0 days since TLE Epoch: 12/12/2020
Index Date (METOP-B) Time (METOP-B) Lat,Lon (METOP-B) SZA (METOP-B ) Date (NOAA-19) Time (NOAA-19) Lat,Lon (NOAA-19) SZA (NOAA-19 ) Distance(km) Time Diff (sec)
1 12/15/2020 17:01:45 -80.32, 130.44 75.43 12/15/2020 17:00:42 -80.30, 130.37 75.47 2.77 63
2 12/15/2020 17:52:27 80.30, -62.55 104.53 12/15/2020 17:51:41 80.31, -62.56 104.53 1.82 46
3 12/15/2020 18:43:07 -80.31, 104.98 75.44 12/15/2020 18:42:42 -80.29, 105.02 75.46 2.29 25
4 12/15/2020 19:33:49 80.29, -88.02 104.52 12/15/2020 19:33:41 80.30, -87.90 104.54 2.98 8
5 12/15/2020 20:24:29 -80.30, 79.51 75.46 12/15/2020 20:24:43 -80.30, 79.34 75.46 3.16 14
6 12/15/2020 21:15:10 80.30,-113.17 104.55 12/15/2020 21:15:41 80.29,-113.24 104.55 1.55 31
7 12/15/2020 22:05:51 -80.29, 54.04 75.47 12/15/2020 22:06:43 -80.29, 53.99 75.46 0.99 52



Historial Predications of SNOs between METOP-B and NOAA-19
